Location: Altmatt
(47.1333°N, 8.7000°E)
Time: 18:52:46
(UTC+00:00)

Cosmos 2228 Rocket - Pass Details

Date: 13 July 2020
Orbit: 617 x 653 km, 82.5° (Epoch: 12 August)

Event Time Altitude Azimuth Distance (km) Brightness Sun altitude
Rises 22:33:38 0° 352° (N) 2,981 8.2 -20.0°
Reaches altitude 10° 22:35:56 10° 355° (N) 2,061 6.9 -20.1°
Maximum altitude 22:40:30 71° 79° (E) 684 3.2 -20.3°
Enters shadow 22:41:37 49° 146° (SE) 833 3.3 -20.3°
